sat.trackr.live / text

‹ back to catalog

STARLINK-1967

NORAD 47568 · 2021-009W

PAYLOAD ACTIVE UNKNOWN

§ Identity

Operator
Country
US
Launch date
2021-02-04
Launch site
AFETR
Launch vehicle
Mass (kg)
RCS (m²)

Purposes: comms

External: N2YO · Heavens-Above · Gunter

§ Orbital elements

Epoch: 2026-07-25T22:08:33.312192Z

Period
88.03 min
Inclination
53.0220°
Eccentricity
0.0010339
Mean motion
16.35828844 rev/d
Perigee alt
170.1 km
Apogee alt
183.7 km
Semi-major
6,555.1 km
B*
6.8224e-4
RAAN
30.5430°
Arg perigee
277.3649°
Mean anomaly
82.6221°
Rev number
30,289

§ Raw data

STARLINK-19671 47568U 21009W   26206.92260778  .05899936  12261-4  68224-3 0  99992 47568  53.0220  30.5430 0010339 277.3649  82.6221 16.35828844302895

JSON: /api/v1/satellites/47568 · /tle

For live sub-satellite position, see the globe view (requires WebGL).

§ Visibility from observer

Set your observer location to see the next 7 days of passes ≥ 10°. The values pass through the URL so the page stays shareable.

No JS? Fill the form by hand. The geolocation button needs JavaScript.